[[{"header":{"parameterUnit":"m.s-1","parameterCategory":1,"la1":30.2991,"la2":30.254,"lo1":-89.0895,"lo2":-89.0444,"dy":0.0017,"dx":0.0017,"nx":28,"ny":28,"refTime":"2023-09-14T21:00:00:Z","depth":0,"parameterNumber":2,"parameterNumberName":"U-component_of_WINDS"},"data":[0,0,0,0,0,0,0,0,0,0,0,0,0,0,0,0,0,0,0,0,0,0,0,0,0,0,0,0,0,0,0,0,0,0,0,0,0,0,0,0,0,0,0,0,0,0,0,0,0,0,0,0,0,0,0,0,0,0,-1.1127,-1.1126,0,-1.1019,-1.1018,-1.1017,-1.0943,-1.0942,-1.0942,-1.0941,-1.0827,-1.0825,-1.0822,0,0,0,0,0,0,0,0,0,0,0,0,0,-1.1265,-1.1263,-1.1127,-1.1126,-1.1125,-1.1019,-1.1018,-1.1016,-1.0943,-1.0942,-1.0942,-1.0941,-1.0828,-1.0825,-1.0822,0,0,0,0,0,0,0,0,0,0,0,0,0,-1.1186,-1.1262,-1.1127,-1.1075,-1.107,-1.102,-1.1018,-1.1016,-1.0943,-1.0942,-1.0942,-1.0941,-1.0829,-1.0825,-1.0822,-1.0814,0,0,-1.081,-1.0808,0,0,0,0,0,0,0,0,-1.1191,-1.1181,-1.1084,-1.1079,-1.1072,-1.0994,-1.1025,-1.0948,-1.0943,-1.0991,-1.0941,-1.0941,-1.0883,-1.0875,-1.0856,-1.0808,-1.0804,-1.081,-1.0807,-1.0806,-1.0805,0,0,0,0,0,0,0,-1.1196,-1.1185,-1.1084,-1.1083,-1.1076,-1.1056,-1.1044,-1.101,-1.0943,-1.0987,-1.0981,-1.097,-1.088,-1.086,-1.0853,-1.0802,-1.081,-1.0806,-1.0804,-1.0802,-1.0741,-1.0741,0,0,0,0,0,0,-1.121,-1.119,-1.1088,-1.1081,-1.1131,-1.1054,-1.104,-1.102,-1.0943,-1.0931,-1.0971,-1.0967,-1.0867,-1.0857,-1.0849,-1.0833,-1.0806,-1.0802,-1.08,-1.074,-1.0741,-1.0741,0,0,0,0,0,0,-1.1214,-1.1202,-1.1092,-1.1134,-1.1119,-1.1053,-1.103,-1.1018,-1.0998,-1.0931,-1.0918,-1.0963,-1.0866,-1.0854,-1.0823,-1.0829,-1.08,-1.0797,-1.0739,-1.074,-1.0741,-1.0804,0,0,0,0,0,0,-1.1218,-1.1204,-1.1201,-1.1135,-1.1117,-1.107,-1.103,-1.1017,-1.0992,-1.0986,-1.092,-1.0908,-1.0864,-1.0829,-1.0819,-1.0823,-1.0794,-1.0738,-1.074,-1.0741,-1.0801,-1.0807,-1.0812,0,0,0,0,0,-1.1223,-1.1223,-1.1202,-1.119,-1.1113,-1.107,-1.106,-1.101,-1.0993,-1.0989,-1.0946,-1.0911,-1.083,-1.0826,-1.0815,-1.0817,-1.0738,-1.0739,-1.0741,-1.0799,-1.0806,-1.0812,0,0,0,0,0,0,-1.1291,-1.1213,-1.1189,-1.1167,-1.1126,-1.1058,-1.1052,-1.102,-1.0982,-1.0977,-1.0916,-1.0902,-1.0877,-1.0844,-1.0842,-1.0805,-1.0779,-1.0778,-1.0828,-1.0834,-1.0839,-1.0847,-1.0791,0,0,0,0,0,-1.1303,-1.1277,-1.121,-1.1197,-1.1178,-1.1119,-1.1098,-1.1064,-1.1018,-1.1,-1.0954,-1.091,-1.0874,-1.0852,-1.0816,-1.0796,-1.078,-1.0792,-1.0797,-1.0802,-1.0802,-1.0788,-1.0792,-1.0746,-1.0746,-1.0746,0,0,-1.1329,-1.1283,-1.127,-1.121,-1.1174,-1.1146,-1.1105,-1.1077,-1.1056,-1.0995,-1.0964,-1.0928,-1.0875,-1.0849,-1.0835,-1.0821,-1.0811,-1.0804,-1.0808,-1.0805,-1.079,-1.0794,-1.0798,-1.0747,-1.0747,-1.0747,0,0,-1.1361,-1.1324,-1.1309,-1.1274,-1.122,-1.1181,-1.1177,-1.1114,-1.1088,-1.1055,-1.1009,-1.0982,-1.0922,-1.0886,-1.086,-1.0877,-1.0843,-1.0866,-1.0895,-1.0882,-1.0885,-1.0888,-1.0893,-1.0896,-1.0867,-1.0867,-1.0867,0,-1.1399,-1.1357,-1.1305,-1.1281,-1.1255,-1.12,-1.1183,-1.1151,-1.1088,-1.1071,-1.1055,-1.0979,-1.0939,-1.0903,-1.0908,-1.0888,-1.0881,-1.0874,-1.0889,-1.0892,-1.0893,-1.0898,-1.09,-1.087,-1.087,-1.0869,-1.0869,0,-1.1406,-1.1377,-1.1371,-1.1313,-1.1286,-1.1266,-1.1209,-1.1188,-1.1156,-1.1117,-1.1083,-1.1034,-1.0986,-1.0975,-1.0942,-1.0934,-1.0926,-1.0901,-1.0874,-1.0902,-1.0905,-1.0906,-1.0875,-1.0873,-1.0872,-1.0872,0,0,-1.1478,-1.1391,-1.1389,-1.1362,-1.1298,-1.1274,-1.125,-1.1205,-1.1187,-1.1145,-1.1123,-1.1073,-1.1049,-1.1019,-1.0982,-1.097,-1.0986,-1.0946,-1.0944,-1.0954,-1.0972,-1.0992,-1.0995,-1.0963,-1.0963,-1.0963,-1.0977,0,-1.15,-1.1456,-1.1408,-1.138,-1.1353,-1.1299,-1.1278,-1.1236,-1.1199,-1.1169,-1.1127,-1.1093,-1.1064,-1.1046,-1.1032,-1.0987,-1.0989,-1.0985,-1.094,-1.0939,-1.0955,-1.0996,-1.1017,-1.1032,-1.0978,-1.0978,-1.0978,0,-1.152,-1.1482,-1.1452,-1.139,-1.1376,-1.1358,-1.1312,-1.1284,-1.1234,-1.1208,-1.1175,-1.1135,-1.1105,-1.1082,-1.104,-1.1039,-1.1017,-1.0992,-1.0991,-1.0985,-1.096,-1.099,-1.1036,-1.1038,-1.0979,-1.0979,-1.0979,0,-1.1575,-1.1516,-1.149,-1.1468,-1.1395,-1.1383,-1.1352,-1.1302,-1.1277,-1.1235,-1.1218,-1.1174,-1.1149,-1.1115,-1.1064,-1.1052,-1.1026,-1.0999,-1.1002,-1.1004,-1.0999,-1.1,-1.1042,-1.0987,-1.0987,-1.0987,-1.0986,0,-1.1605,-1.1588,-1.1513,-1.1497,-1.1477,-1.1421,-1.1401,-1.1365,-1.132,-1.1295,-1.1245,-1.1222,-1.1156,-1.1125,-1.1084,-1.1054,-1.1044,-1.1021,-1.101,-1.1025,-1.1028,-1.101,-1.1007,-1.0987,-1.0987,-1.0987,-1.0987,0,-1.1663,-1.1612,-1.158,-1.1514,-1.1497,-1.1484,-1.1426,-1.1408,-1.1368,-1.1336,-1.1326,-1.1262,-1.1223,-1.1168,-1.1111,-1.1084,-1.106,-1.1043,-1.1077,-1.1071,-1.1077,-1.1077,-1.1108,-1.1108,-1.1054,-1.1055,-1.1055,0,-1.1685,-1.1671,-1.1603,-1.1584,-1.1554,-1.1523,-1.1497,-1.1441,-1.1416,-1.1358,-1.1346,-1.1303,-1.1265,-1.1204,-1.1152,-1.1108,-1.1089,-1.1103,-1.1082,-1.1098,-1.1089,-1.109,-1.1088,-1.1108,-1.1109,-1.111,-1.1111,0,-1.173,-1.1705,-1.1671,-1.1628,-1.1599,-1.1562,-1.1522,-1.1508,-1.1443,-1.1417,-1.1377,-1.1348,-1.129,-1.1247,-1.1196,-1.1162,-1.1125,-1.1118,-1.1116,-1.1131,-1.1151,-1.1139,-1.109,-1.1117,-1.1116,-1.1116,-1.1116,-1.1115,-1.177,-1.1754,-1.1704,-1.1667,-1.1632,-1.1596,-1.1575,-1.1533,-1.1498,-1.1448,-1.1416,-1.1377,-1.1325,-1.1253,-1.122,-1.1188,-1.1173,-1.1171,-1.117,-1.117,-1.1175,-1.1157,-1.1178,-1.1178,-1.1177,-1.1177,-1.1177,0,-1.1811,-1.1776,-1.1743,-1.1689,-1.166,-1.1629,-1.1583,-1.156,-1.1527,-1.1483,-1.1447,-1.1399,-1.1357,-1.1302,-1.1255,-1.124,-1.1221,-1.1229,-1.123,-1.1222,-1.1191,-1.1197,-1.1245,-1.1245,-1.1245,-1.1245,-1.1245,-1.1245,-1.1829,-1.1801,-1.1771,-1.1724,-1.1689,-1.1651,-1.1627,-1.1593,-1.1557,-1.1507,-1.1472,-1.1437,-1.1388,-1.1337,-1.1296,-1.1281,-1.1266,-1.1279,-1.1258,-1.123,-1.1224,-1.1219,-1.1224,-1.1276,-1.1276,-1.1291,-1.1292,-1.1292]},{"header":{"parameterUnit":"m.s-1","parameterCategory":1,"la1":30.2991,"la2":30.254,"lo1":-89.0895,"lo2":-89.0444,"dy":0.0017,"dx":0.0017,"nx":28,"ny":28,"refTime":"2023-09-14T21:00:00:Z","depth":0,"parameterNumber":3,"parameterNumberName":"V-component_of_WINDS"},"data":[0,0,0,0,0,0,0,0,0,0,0,0,0,0,0,0,0,0,0,0,0,0,0,0,0,0,0,0,0,0,0,0,0,0,0,0,0,0,0,0,0,0,0,0,0,0,0,0,0,0,0,0,0,0,0,0,0,0,0.3476,0.3474,0,0.3318,0.3316,0.3314,0.3219,0.3218,0.3218,0.3217,0.3052,0.3048,0.3044,0,0,0,0,0,0,0,0,0,0,0,0,0,0.3694,0.369,0.3476,0.3474,0.3472,0.3318,0.3316,0.3314,0.3219,0.3218,0.3218,0.3217,0.3053,0.3048,0.3044,0,0,0,0,0,0,0,0,0,0,0,0,0,0.3574,0.3689,0.3476,0.3406,0.3399,0.3318,0.3316,0.3313,0.3219,0.3218,0.3218,0.3217,0.3055,0.3049,0.3043,0.3019,0,0,0.3025,0.3022,0,0,0,0,0,0,0,0,0.3581,0.3566,0.3419,0.3411,0.3402,0.3287,0.3332,0.3214,0.3219,0.3287,0.3217,0.3217,0.313,0.3118,0.309,0.3011,0.3004,0.3024,0.302,0.3018,0.3016,0,0,0,0,0,0,0,0.3589,0.3572,0.3413,0.3417,0.3407,0.3382,0.3364,0.3309,0.3214,0.3281,0.3274,0.3257,0.3126,0.3096,0.3085,0.3002,0.3024,0.3019,0.3015,0.3013,0.2895,0.2896,0,0,0,0,0,0,0.3609,0.358,0.3418,0.3408,0.3492,0.3379,0.3359,0.3325,0.3215,0.3197,0.3257,0.3253,0.3106,0.3092,0.3079,0.3043,0.3018,0.3012,0.3009,0.2895,0.2895,0.2896,0,0,0,0,0,0,0.3614,0.3596,0.3425,0.3492,0.3468,0.3376,0.3338,0.3322,0.3292,0.3197,0.3179,0.3244,0.3105,0.3087,0.3035,0.3036,0.3009,0.3004,0.2894,0.2895,0.2896,0.2972,0,0,0,0,0,0,0.3621,0.3598,0.3588,0.3493,0.3465,0.3384,0.3338,0.3319,0.3282,0.3275,0.318,0.3163,0.3103,0.3044,0.3029,0.3027,0.2999,0.2894,0.2895,0.2895,0.2969,0.2975,0.2981,0,0,0,0,0,0.3629,0.3615,0.3588,0.3569,0.3452,0.3384,0.3369,0.3301,0.3283,0.3272,0.3211,0.3166,0.3039,0.304,0.3022,0.3018,0.2893,0.2894,0.2895,0.2966,0.2974,0.2981,0,0,0,0,0,0,0.3712,0.3601,0.357,0.3526,0.3466,0.3369,0.3353,0.3311,0.3254,0.3249,0.3167,0.3146,0.3101,0.3055,0.3057,0.2989,0.2961,0.2959,0.3021,0.3028,0.3034,0.3045,0.2994,0,0,0,0,0,0.3726,0.3681,0.3587,0.3556,0.3528,0.3446,0.3414,0.3368,0.3301,0.3275,0.321,0.3146,0.3092,0.3057,0.3002,0.2963,0.294,0.2951,0.2957,0.2963,0.2961,0.2936,0.294,0.29,0.29,0.29,0,0,0.3752,0.3686,0.3663,0.3572,0.3519,0.3474,0.3425,0.3379,0.3345,0.3267,0.3214,0.3164,0.3088,0.3042,0.3018,0.3001,0.2967,0.2964,0.2969,0.2964,0.2938,0.2941,0.2945,0.29,0.29,0.29,0,0,0.3778,0.3724,0.3693,0.3642,0.3564,0.351,0.3503,0.3412,0.3377,0.3322,0.3263,0.3221,0.3129,0.3077,0.3039,0.3047,0.3003,0.3031,0.3061,0.3038,0.3041,0.3043,0.3045,0.3047,0.303,0.303,0.303,0,0.382,0.3751,0.3682,0.364,0.3601,0.3531,0.3498,0.3452,0.336,0.3334,0.3317,0.3201,0.3145,0.3085,0.3087,0.3059,0.3047,0.304,0.3046,0.3048,0.3049,0.305,0.3051,0.3034,0.3034,0.3033,0.3033,0,0.3807,0.376,0.3744,0.3658,0.3618,0.3581,0.3505,0.3472,0.343,0.3378,0.3323,0.3253,0.3183,0.3166,0.3123,0.31,0.3092,0.3062,0.3032,0.3058,0.3057,0.3057,0.3039,0.3038,0.3037,0.3036,0,0,0.3877,0.3756,0.3751,0.3711,0.3621,0.3583,0.3543,0.3475,0.3449,0.3388,0.3351,0.3277,0.3248,0.3205,0.3156,0.3136,0.3146,0.3108,0.3105,0.3117,0.3116,0.3138,0.314,0.3118,0.3118,0.3118,0.3122,0,0.3888,0.3814,0.3751,0.3699,0.3655,0.3589,0.3554,0.3495,0.3445,0.3399,0.3344,0.3292,0.3259,0.3233,0.321,0.315,0.3145,0.3149,0.3082,0.308,0.3101,0.3139,0.3162,0.317,0.3121,0.3121,0.3121,0,0.3891,0.3834,0.3779,0.3694,0.3673,0.3643,0.3576,0.3534,0.3465,0.343,0.3383,0.3333,0.3287,0.3263,0.3198,0.3203,0.3172,0.3138,0.3137,0.3126,0.3101,0.3129,0.317,0.3171,0.312,0.312,0.312,0,0.3947,0.3857,0.3812,0.378,0.368,0.3661,0.3618,0.3549,0.3513,0.3454,0.343,0.3367,0.3332,0.3284,0.3218,0.3207,0.3159,0.313,0.3128,0.313,0.3119,0.312,0.3155,0.3102,0.3102,0.3102,0.3102,0,0.3964,0.3933,0.3836,0.3808,0.377,0.3699,0.3664,0.3615,0.3555,0.3515,0.3455,0.3419,0.3335,0.3289,0.3237,0.3191,0.3175,0.3145,0.3131,0.315,0.3154,0.3127,0.3124,0.3103,0.3102,0.3102,0.3102,0,0.4019,0.3954,0.39,0.3811,0.3788,0.3764,0.3687,0.3657,0.3606,0.3557,0.3541,0.346,0.3403,0.3333,0.3253,0.3218,0.3176,0.3156,0.32,0.3191,0.3193,0.3193,0.321,0.3208,0.3159,0.316,0.316,0,0.4034,0.4008,0.3917,0.3888,0.3847,0.38,0.3763,0.3692,0.3656,0.3577,0.3557,0.3496,0.3443,0.3355,0.3287,0.3226,0.3203,0.3214,0.3193,0.3213,0.3202,0.3204,0.32,0.3218,0.3219,0.322,0.322,0,0.4067,0.4036,0.3986,0.3925,0.3883,0.3831,0.3776,0.3755,0.3673,0.3636,0.3577,0.3537,0.3456,0.3396,0.3327,0.3281,0.3237,0.3228,0.3224,0.3241,0.3267,0.3252,0.3212,0.3227,0.3226,0.3226,0.3226,0.3225,0.4101,0.4075,0.4008,0.3954,0.3906,0.3857,0.3824,0.3769,0.372,0.365,0.3611,0.3554,0.3486,0.3389,0.3346,0.3299,0.3283,0.3278,0.3276,0.3275,0.3281,0.3277,0.3287,0.3286,0.3286,0.3286,0.3286,0,0.413,0.4084,0.4035,0.3961,0.3919,0.3884,0.3822,0.3788,0.3739,0.3681,0.3631,0.3564,0.3506,0.3435,0.3372,0.3348,0.3326,0.3334,0.3334,0.3324,0.3299,0.3308,0.3353,0.3353,0.3353,0.3353,0.3353,0.3353,0.414,0.4094,0.4056,0.3986,0.3939,0.3884,0.3851,0.3805,0.3758,0.3687,0.3639,0.3594,0.353,0.3462,0.3407,0.3387,0.3366,0.338,0.3354,0.3332,0.3326,0.332,0.3328,0.3376,0.3376,0.3383,0.3383,0.3383]}]]